Northeast Philadelphia, PA

8:03 AM EST on February 23, 2018 (GMT -0500)
Northeast Philadelphia

Weather History for KPNE - December, 2011

Change the Weather History Date:

Sunday, December 4, 2011

  Actual Average Record
Temperature  
Mean Temperature 44 °F -  
Max Temperature 57 °F 47 °F 72 °F (1998)
Min Temperature 30 °F 31 °F 18 °F (2002)
Degree Days  
Heating Degree Days 22    
Moisture  
Dew Point 36 °F    
Average Humidity 79    
Maximum Humidity 96    
Minimum Humidity 53    
Precipitation  
Precipitation 0.00 in - - ()
Sea Level Pressure  
Sea Level Pressure 30.50 in    
Wind  
Wind Speed 2 mph (South)    
Max Wind Speed 13 mph    
Max Gust Speed 16 mph    
Visibility 9 miles    
Events      
Averages and records for this station are not official NWS values.
T = Trace of Precipitation, MM = Missing Value Source: NWS Daily Summary

Daily Weather History Graph

Daily Weather History Graph

Search for Another Location

Airport or City:

Trip Planner

Search our weather history database for the weather conditions in past years. The results will help you decide how hot, cold, wet, or windy it might be!

Date:

Astronomy

Dec. 04, 2011 Rise Set
Actual Time 7:05 AM EST 4:34 PM EST
Civil Twilight 6:35 AM EST 5:04 PM EST
Nautical Twilight 6:01 AM EST 5:38 PM EST
Astronomical Twilight 5:28 AM EST 6:11 PM EST
Moon 1:04 PM EST (12/4) 1:28 AM EST (12/4)
Length of Visible Light 10h 29m
Length of Day
9h 29m
Waxing Gibbous, 71% of the Moon is Illuminated
Dec 4
Waxing Gibbous
Dec 10
Full
Dec 17
Last Quarter
Dec 24
New
Jan 1
First Quarter

Hourly Weather History & Observations

Time (EST) Temp. Windchill Dew Point Humidity Pressure Visibility Wind Dir Wind Speed Gust Speed Precip Events Conditions
12:54 AM 30.9 °F - 28.0 °F 89% 30.61 in 10.0 mi Calm Calm - N/A   Clear
1:54 AM 30.9 °F - 28.0 °F 89% 30.60 in 8.0 mi Calm Calm - N/A   Clear
2:17 AM 32.0 °F 28.7 °F 28.4 °F 87% 30.60 in 9.0 mi NE 3.5 mph - N/A   Mostly Cloudy
2:54 AM 33.1 °F - 30.0 °F 89% 30.61 in 10.0 mi Calm Calm - N/A   Mostly Cloudy
3:54 AM 34.0 °F - 30.9 °F 89% 30.59 in 10.0 mi Calm Calm - N/A   Overcast
4:54 AM 35.1 °F - 32.0 °F 89% 30.58 in 10.0 mi Calm Calm - N/A   Overcast
5:54 AM 33.1 °F 30.0 °F 30.0 °F 89% 30.57 in 9.0 mi NE 3.5 mph - N/A   Clear
6:54 AM 30.9 °F 27.5 °F 28.9 °F 92% 30.58 in 7.0 mi NE 3.5 mph - N/A   Clear
7:54 AM 33.1 °F - 30.0 °F 89% 30.57 in 6.0 mi Calm Calm - N/A   Clear
8:11 AM 37.4 °F - 33.8 °F 87% 30.57 in 7.0 mi Calm Calm - N/A   Mostly Cloudy
8:54 AM 41.0 °F - 36.0 °F 82% 30.57 in 10.0 mi Calm Calm - N/A   Mostly Cloudy
9:03 AM 42.8 °F - 35.6 °F 76% 30.57 in 10.0 mi Calm Calm - N/A   Scattered Clouds
9:54 AM 46.0 °F 44.8 °F 37.9 °F 73% 30.57 in 10.0 mi SE 3.5 mph - N/A   Clear
10:54 AM 51.1 °F - 39.0 °F 63% 30.54 in 10.0 mi Variable 5.8 mph - N/A   Clear
11:54 AM 55.0 °F - 39.9 °F 57% 30.52 in 10.0 mi SSW 12.7 mph 16.1 mph N/A   Partly Cloudy
12:54 PM 55.0 °F - 39.9 °F 57% 30.48 in 10.0 mi SSW 10.4 mph - N/A   Clear
1:54 PM 55.9 °F - 39.9 °F 55% 30.45 in 10.0 mi Variable 4.6 mph - N/A   Clear
2:54 PM 57.0 °F - 39.9 °F 53% 30.44 in 10.0 mi SW 5.8 mph - N/A   Clear
3:54 PM 55.9 °F - 39.9 °F 55% 30.43 in 10.0 mi SW 6.9 mph - N/A   Clear
4:54 PM 53.1 °F - 39.9 °F 61% 30.42 in 10.0 mi SSW 3.5 mph - N/A   Clear
5:54 PM 51.1 °F - 41.0 °F 68% 30.44 in 10.0 mi Calm Calm - N/A   Clear
6:54 PM 48.9 °F - 41.0 °F 74% 30.43 in 10.0 mi Calm Calm - N/A   Clear
7:54 PM 46.9 °F - 41.0 °F 80% 30.44 in 10.0 mi Calm Calm - N/A   Mostly Cloudy
8:33 PM 44.6 °F - 39.2 °F 81% 30.43 in 10.0 mi Calm Calm - N/A   Overcast
8:54 PM 48.0 °F - 41.0 °F 77% 30.43 in 10.0 mi Calm Calm - N/A   Mostly Cloudy
9:09 PM 46.4 °F - 41.0 °F 81% 30.43 in 10.0 mi Calm Calm - N/A   Scattered Clouds
9:54 PM 44.1 °F - 39.9 °F 85% 30.44 in 10.0 mi Calm Calm - N/A   Clear
10:54 PM 42.1 °F - 39.9 °F 92% 30.43 in 10.0 mi Calm Calm - N/A   Mostly Cloudy
11:34 PM 41.0 °F - 39.2 °F 93% 30.42 in 2.5 mi Calm Calm - N/A   Mostly Cloudy
11:42 PM 41.0 °F - 39.2 °F 93% 30.42 in 5.0 mi Calm Calm - N/A   Mostly Cloudy
11:54 PM 41.0 °F - 39.9 °F 96% 30.43 in 6.0 mi Calm Calm - N/A   Mostly Cloudy